TimeEST,TemperatureF,Dew PointF,Humidity,Sea Level PressureIn,VisibilityMPH,Wind Direction,Wind SpeedMPH,Gust SpeedMPH,PrecipitationIn,Events,Conditions,WindDirDegrees,DateUTC
12:15 AM,37.4,31.6,80,30.22,7.0,NNE,5.8,-,0.01,,Drizzle,30,2013-01-16 05:15:00
12:35 AM,36.9,32.0,83,30.22,5.0,NNE,4.6,-,0.03,Rain,Light Rain,30,2013-01-16 05:35:00
12:55 AM,36.5,32.0,84,30.22,4.0,NNE,3.5,-,0.06,Rain,Light Rain,30,2013-01-16 05:55:00
1:15 AM,36.0,32.0,86,30.20,5.0,NNE,9.2,-,0.02,Rain,Light Rain,30,2013-01-16 06:15:00
1:55 AM,35.2,32.0,88,30.19,5.0,NNE,6.9,-,0.05,Rain,Light Rain,30,2013-01-16 06:55:00
2:15 AM,34.9,32.0,89,30.19,5.0,NNE,9.2,-,0.01,,Drizzle,30,2013-01-16 07:15:00
2:35 AM,34.9,32.0,89,30.18,5.0,NNE,10.4,-,0.03,Rain,Light Rain,30,2013-01-16 07:35:00
3:15 AM,34.7,32.2,91,30.15,4.0,NNE,8.1,-,0.03,Rain,Light Rain,30,2013-01-16 08:15:00
3:35 AM,34.5,32.2,91,30.13,4.0,NNE,9.2,-,0.07,Rain,Rain,30,2013-01-16 08:35:00
4:15 AM,34.3,32.4,92,30.13,3.0,North,5.8,-,0.04,Rain,Rain,10,2013-01-16 09:15:00
4:35 AM,34.3,32.5,93,30.12,3.0,NNE,4.6,-,0.10,Rain,Rain,30,2013-01-16 09:35:00
5:15 AM,34.2,32.5,94,30.10,4.0,ENE,4.6,-,0.04,Rain,Rain,70,2013-01-16 10:15:00
5:55 AM,34.3,32.9,94,30.09,4.0,Calm,Calm,-,0.08,Rain,Light Rain,0,2013-01-16 10:55:00
6:15 AM,34.9,33.3,94,30.07,5.0,ENE,5.8,-,0.02,Rain,Light Rain,70,2013-01-16 11:15:00
6:35 AM,35.2,33.8,94,30.07,5.0,Calm,Calm,-,0.04,Rain,Rain,0,2013-01-16 11:35:00
6:55 AM,34.7,33.1,94,30.07,4.0,Calm,Calm,-,0.05,Rain,Light Rain,0,2013-01-16 11:55:00
7:15 AM,34.7,33.3,94,30.07,4.0,North,3.5,-,N/A,,Drizzle,360,2013-01-16 12:15:00
7:35 AM,34.7,33.3,94,30.06,4.0,NE,3.5,-,0.01,Rain,Light Rain,50,2013-01-16 12:35:00
7:55 AM,34.9,33.4,94,30.05,2.5,Calm,Calm,-,0.03,Rain,Light Rain,0,2013-01-16 12:55:00
8:15 AM,35.1,33.8,95,30.04,4.0,NNE,4.6,-,0.01,Rain,Rain,30,2013-01-16 13:15:00
8:55 AM,35.2,33.8,94,30.01,5.0,NE,4.6,-,0.01,,Overcast,50,2013-01-16 13:55:00
9:15 AM,35.6,34.0,94,29.98,4.0,ENE,4.6,-,N/A,,Drizzle,70,2013-01-16 14:15:00
9:35 AM,35.6,33.8,93,29.98,4.0,Calm,Calm,-,N/A,,Light Drizzle,0,2013-01-16 14:35:00
10:15 AM,35.6,34.0,94,30.00,4.0,WNW,5.8,-,N/A,Rain,Light Rain,290,2013-01-16 15:15:00
10:55 AM,35.4,33.8,94,30.00,3.0,NW,4.6,-,N/A,Rain,Rain,320,2013-01-16 15:55:00
11:15 AM,35.6,34.0,94,29.97,3.0,NNW,4.6,-,0.01,Rain,Rain,330,2013-01-16 16:15:00
11:35 AM,35.6,33.8,93,29.97,4.0,NW,4.6,-,0.02,Rain,Light Rain,320,2013-01-16 16:35:00
11:55 AM,35.6,33.8,93,29.96,4.0,NW,5.8,-,0.02,,Drizzle,310,2013-01-16 16:55:00
12:15 PM,35.6,33.8,93,29.94,4.0,NW,6.9,-,N/A,,Drizzle,310,2013-01-16 17:15:00
12:35 PM,35.1,33.4,94,29.91,4.0,Calm,Calm,-,N/A,,Light Drizzle,0,2013-01-16 17:35:00
12:55 PM,35.6,33.8,93,29.90,4.0,NW,3.5,-,N/A,,Drizzle,320,2013-01-16 17:55:00
1:15 PM,35.4,33.8,94,29.84,4.0,ESE,3.5,-,N/A,,Light Drizzle,110,2013-01-16 18:15:00
1:35 PM,36.0,34.7,95,29.85,3.0,Calm,Calm,-,N/A,,Light Drizzle,0,2013-01-16 18:35:00
1:55 PM,36.5,34.7,93,29.83,3.0,North,4.6,-,N/A,,Overcast,350,2013-01-16 18:55:00
2:15 PM,36.0,34.3,94,29.91,4.0,NW,11.5,17.3,N/A,,Overcast,310,2013-01-16 19:15:00
2:35 PM,36.0,34.5,94,29.91,4.0,NNW,6.9,-,N/A,,Overcast,330,2013-01-16 19:35:00
2:55 PM,35.8,34.3,94,29.88,2.0,Calm,Calm,-,N/A,,Overcast,0,2013-01-16 19:55:00
3:15 PM,36.0,34.5,94,29.90,4.0,Calm,Calm,-,N/A,,Overcast,0,2013-01-16 20:15:00
3:35 PM,36.5,34.7,93,29.89,4.0,Calm,Calm,-,N/A,,Overcast,0,2013-01-16 20:35:00
3:55 PM,36.5,34.9,94,29.92,4.0,Calm,Calm,-,N/A,,Overcast,0,2013-01-16 20:55:00
4:35 PM,36.7,35.1,94,29.92,5.0,West,6.9,-,N/A,,Overcast,280,2013-01-16 21:35:00
4:55 PM,36.7,35.1,94,29.92,7.0,West,5.8,-,N/A,,Overcast,270,2013-01-16 21:55:00
5:15 PM,36.9,35.2,94,29.91,7.0,Calm,Calm,-,N/A,,Overcast,0,2013-01-16 22:15:00
5:55 PM,37.2,35.1,92,29.92,7.0,WSW,4.6,-,N/A,,Overcast,240,2013-01-16 22:55:00
6:15 PM,37.0,34.9,92,29.92,7.0,WSW,6.9,-,N/A,,Overcast,250,2013-01-16 23:15:00
6:35 PM,37.4,34.9,91,29.92,10.0,WSW,5.8,-,N/A,,Overcast,240,2013-01-16 23:35:00
6:55 PM,37.4,34.7,90,29.91,10.0,WSW,3.5,-,N/A,,Overcast,240,2013-01-16 23:55:00
7:15 PM,37.4,34.9,91,29.93,10.0,WSW,10.4,-,N/A,,Overcast,250,2013-01-17 00:15:00
7:35 PM,37.4,34.9,91,29.92,10.0,WSW,8.1,-,N/A,,Overcast,250,2013-01-17 00:35:00
7:55 PM,37.4,34.9,91,29.92,10.0,WSW,8.1,-,N/A,,Overcast,250,2013-01-17 00:55:00
8:15 PM,37.6,35.1,91,29.92,10.0,West,6.9,-,N/A,,Overcast,260,2013-01-17 01:15:00
8:35 PM,37.9,35.4,91,29.93,10.0,WSW,8.1,-,N/A,,Overcast,250,2013-01-17 01:35:00
8:55 PM,37.9,35.4,91,29.94,10.0,West,9.2,-,N/A,,Overcast,270,2013-01-17 01:55:00
9:15 PM,37.9,35.2,90,29.93,7.0,West,10.4,-,N/A,,Overcast,270,2013-01-17 02:15:00
9:35 PM,37.9,35.2,90,29.93,10.0,West,8.1,-,N/A,,Mostly Cloudy,260,2013-01-17 02:35:00
9:55 PM,38.1,35.2,89,29.92,7.0,West,9.2,-,N/A,,Scattered Clouds,260,2013-01-17 02:55:00
10:15 PM,38.3,35.2,89,29.91,7.0,WSW,5.8,-,N/A,,Clear,250,2013-01-17 03:15:00
10:55 PM,38.3,35.2,89,29.93,7.0,WSW,5.8,-,N/A,,Clear,250,2013-01-17 03:55:00
11:15 PM,38.3,35.2,89,29.93,7.0,West,6.9,-,N/A,,Clear,270,2013-01-17 04:15:00
11:35 PM,38.5,35.1,87,29.94,7.0,West,4.6,-,N/A,,Clear,260,2013-01-17 04:35:00
11:55 PM,38.7,35.1,87,29.93,10.0,West,6.9,-,N/A,,Clear,260,2013-01-17 04:55:00